Content
SEND FEEDBACK

France Flag

ROUEN, FRANCE


Home > Europe > France
Elevation: 515 feet     Latitude: 49 23N     Longitude: 001 11E

WEATHER
 
SELECT A DAY
Number of Records: 216,302;   Date Range: 7/1/96 - 3/22/16
 
SHARE

PRINT THIS DATA

[ ← Previous Day ]
WEATHER ALMANAC - SEPTEMBER 27, 2013
[ Next Day → ]
[ °C ]   °F
Weather ElementAverageHighLow
Temperature60.8 °F71.6 °F (3:30 pm)55 °F (8:00 am)
Dewpoint54.1 °F56 °F (2:00 pm)51.8 °F (3:30 am)
Humidity79.4 %94 % (12:30 am)56 % (2:00 pm)
Barometer29.95 in30.01 in (12:30 am)29.86 in (9:30 pm)
Wind Speed9.4 mph12.7 mph (12:30 pm)
Weather ElementAverage
Visibility4.7 mi
Wind DirectionENE (77.6 °)

Weather ElementTotal
Precipitation---
Heating Degree Days1.7 (Base 65)
Growing Degree Days13.3 (Base 50)
Averaged from 51 records on September 27, 2013
WEATHER CONDITIONS BREAKOUT
WIND DIRECTION BREAKOUT
WEATHER BY HOUR - SEPTEMBER 27, 2013
[ °C ]   °F
Local TimeTemperatureDewpointHumidityBarometerVisibilityWind DirectionWind SpeedGust SpeedPrecipitationEventsConditions
12:30 AM57.2 °F55.4 °F94 %30.01 in3.1 miENE (70°)8.1 mphMist
1:00 AM57.2 °F53.6 °F88 %30.01 in3.1 miEast (80°)6.9 mphMist
1:30 AM57.2 °F53.6 °F88 %30.01 in3.1 miEast (80°)9.2 mphMist
2:00 AM57.0 °F54.0 °F85 %30.01 in3.0 miEast (90°)8.1 mphClear
2:00 AM57.2 °F53.6 °F88 %30.01 in3.1 miEast (90°)8.1 mphMist
2:30 AM57.2 °F53.6 °F88 %30.01 in3.1 miEast (80°)8.1 mphMist
3:00 AM55.4 °F53.6 °F94 %30.01 in3.1 miENE (60°)5.8 mphMist
3:30 AM55.4 °F51.8 °F88 %29.98 in3.1 miENE (60°)6.9 mphMist
4:00 AM55.4 °F53.6 °F94 %29.98 in3.1 miNE (50°)8.1 mphMist
4:30 AM55.4 °F53.6 °F94 %29.98 inENE (60°)8.1 mphMist
5:00 AM55.4 °F53.6 °F94 %29.98 inENE (60°)6.9 mphMist
5:30 AM55.4 °F53.6 °F94 %29.98 inENE (60°)9.2 mphMist
6:00 AM55.4 °F53.6 °F94 %29.98 inENE (60°)6.9 mphMist
6:30 AM55.4 °F53.6 °F94 %29.98 inENE (70°)8.1 mphMist
7:00 AM55.4 °F51.8 °F88 %29.98 inENE (70°)5.8 mphMist
7:30 AM55.4 °F51.8 °F88 %29.95 inENE (70°)8.1 mphMist
8:00 AM55.0 °F52.0 °F87 %29.98 in3.0 miENE (70°)9.2 mphMist
8:00 AM55.4 °F51.8 °F88 %29.98 in2.8 miENE (70°)9.2 mphMist
8:30 AM55.4 °F51.8 °F88 %29.98 inENE (70°)8.1 mphMist
9:00 AM55.4 °F53.6 °F94 %29.98 inENE (70°)8.1 mphMist
9:30 AM57.2 °F53.6 °F88 %29.98 inEast (90°)8.1 mphMist
10:00 AM57.2 °F53.6 °F88 %29.98 in3.1 miEast (80°)8.1 mphMist
10:30 AM60.8 °F55.4 °F82 %29.98 in3.1 miEast (90°)9.2 mphMist
11:00 AM60.8 °F53.6 °F77 %29.98 in4.3 miEast (80°)11.5 mph
11:30 AM60.8 °F53.6 °F77 %29.98 in4.3 miEast (80°)11.5 mph
12:00 PM62.6 °F53.6 °F72 %29.98 in5.0 miENE (70°)11.5 mph
12:30 PM64.4 °F55.4 °F73 %29.98 in6.2 miEast (90°)12.7 mph
1:00 PM66.2 °F53.6 °F64 %29.95 in6.2 miEast (100°)10.4 mph
1:30 PM66.2 °F55.4 °F68 %29.95 in6.2 miEast (90°)10.4 mph
2:00 PM68.0 °F56.0 °F56 %29.95 in7.0 miEast (80°)9.2 mphClear
2:00 PM68.0 °F55.4 °F64 %29.95 in6.2 miEast (90°)9.2 mph
2:30 PM69.8 °F55.4 °F60 %29.95 in6.2 miEast (90°)10.4 mph
3:00 PM69.8 °F55.4 °F60 %29.92 in6.2 miENE (70°)11.5 mph
3:30 PM71.6 °F55.4 °F57 %29.92 in6.2 miENE (70°)11.5 mph
4:00 PM69.8 °F55.4 °F60 %29.92 in6.2 miENE (70°)10.4 mph
4:30 PM69.8 °F55.4 °F60 %29.92 in6.2 miEast (90°)12.7 mph
5:00 PM69.8 °F55.4 °F60 %29.89 in6.2 miEast (80°)12.7 mph
5:30 PM69.8 °F55.4 °F60 %29.89 in6.2 miEast (80°)11.5 mph
6:00 PM68.0 °F55.4 °F64 %29.89 in6.2 miENE (70°)11.5 mph
6:30 PM66.2 °F53.6 °F64 %29.89 in6.2 miEast (90°)12.7 mph
7:00 PM64.4 °F53.6 °F68 %29.89 in6.2 miEast (80°)10.4 mph
7:30 PM62.6 °F53.6 °F72 %29.89 in6.2 miENE (70°)8.1 mph
8:00 PM61.0 °F54.0 °F71 %29.89 in7.0 miEast (80°)8.1 mphClear
8:00 PM60.8 °F53.6 °F77 %29.89 in6.2 miEast (80°)8.1 mph
8:30 PM60.8 °F53.6 °F77 %29.89 in6.2 miENE (70°)8.1 mph
9:00 PM60.8 °F55.4 °F82 %29.89 in4.3 miENE (70°)9.2 mph
9:30 PM59.0 °F55.4 °F88 %29.86 in3.7 miENE (70°)11.5 mph
10:00 PM59.0 °F55.4 °F88 %29.86 in3.1 miENE (70°)12.7 mphMist
10:30 PM59.0 °F55.4 °F88 %29.89 in3.1 miENE (70°)11.5 mphMist
11:00 PM59.0 °F55.4 °F88 %29.92 in3.7 miSSE (160°)8.1 mph
11:30 PM59.0 °F55.4 °F88 %29.89 in3.7 miEast (100°)8.1 mph
Hourly data recorded from LFOP, located miles away from Rouen, France




STORIES FROM OUR PARTNERS